Time,TemperatureF,DewpointF,PressureIn,WindDirection,WindDirectionDegrees,WindSpeedMPH,WindSpeedGustMPH,Humidity,HourlyPrecipIn,Conditions,Clouds,dailyrainin,SoftwareType,DateUTC
2013-12-01 06:00:00,25.4,22.9,30.12,ENE,68,1.0,2.0,90,0.00,,---,0.00,VWS V14.01,2013-12-01 12:00:00,
2013-12-01 06:10:00,25.4,22.9,30.12,ENE,68,1.0,3.0,90,0.00,,---,0.00,VWS V14.01,2013-12-01 12:10:00,
2013-12-01 06:20:00,25.6,23.1,30.12,ENE,68,1.0,2.0,90,0.00,,---,0.00,VWS V14.01,2013-12-01 12:20:00,
2013-12-01 06:30:00,25.6,23.1,30.13,ENE,68,0.0,0.0,90,0.00,,---,0.00,VWS V14.01,2013-12-01 12:30:00,
2013-12-01 06:40:00,25.4,22.9,30.13,ENE,68,0.0,0.0,90,0.00,,---,0.00,VWS V14.01,2013-12-01 12:40:00,
2013-12-01 06:50:00,25.0,22.5,30.13,ENE,68,1.0,2.0,90,0.00,,---,0.00,VWS V14.01,2013-12-01 12:50:00,
2013-12-01 07:00:00,24.5,22.0,30.12,ENE,68,1.0,2.0,90,0.00,,---,0.00,VWS V14.01,2013-12-01 13:00:00,
2013-12-01 07:10:00,24.5,22.2,30.12,ENE,68,1.0,2.0,91,0.00,,---,0.00,VWS V14.01,2013-12-01 13:10:00,
2013-12-01 07:20:00,24.4,22.2,30.13,ENE,68,0.0,0.0,91,0.00,,---,0.00,VWS V14.01,2013-12-01 13:20:00,
2013-12-01 07:30:00,24.2,22.0,30.12,ENE,68,1.0,2.0,91,0.00,,---,0.00,VWS V14.01,2013-12-01 13:30:00,
2013-12-01 07:40:00,24.2,22.0,30.12,ENE,68,0.0,1.0,91,0.00,,---,0.00,VWS V14.01,2013-12-01 13:40:00,
2013-12-01 07:50:00,24.2,22.0,30.12,ENE,68,0.0,0.0,91,0.00,,---,0.00,VWS V14.01,2013-12-01 13:50:00,
2013-12-01 08:00:00,24.4,22.4,30.12,ENE,68,0.0,2.0,92,0.00,,---,0.00,VWS V14.01,2013-12-01 14:00:00,
2013-12-01 08:10:00,25.0,23.0,30.12,ENE,68,1.0,2.0,92,0.00,,---,0.00,VWS V14.01,2013-12-01 14:10:00,
2013-12-01 08:20:00,25.3,23.3,30.12,ENE,68,1.0,2.0,92,0.00,,---,0.00,VWS V14.01,2013-12-01 14:20:00,
2013-12-01 08:30:00,25.7,24.0,30.13,ENE,68,0.0,1.0,93,0.00,,---,0.00,VWS V14.01,2013-12-01 14:30:00,
2013-12-01 08:40:00,26.7,25.0,30.13,ENE,68,0.0,0.0,93,0.00,,---,0.00,VWS V14.01,2013-12-01 14:40:00,
2013-12-01 08:50:00,27.5,25.8,30.12,ENE,68,0.0,2.0,93,0.00,,---,0.00,VWS V14.01,2013-12-01 14:50:00,
2013-12-01 09:00:00,28.4,26.6,30.13,ENE,68,1.0,2.0,93,0.00,,---,0.00,VWS V14.01,2013-12-01 15:00:00,
2013-12-01 09:10:00,30.1,28.6,30.13,ENE,68,0.0,1.0,94,0.00,,---,0.00,VWS V14.01,2013-12-01 15:10:00,
2013-12-01 09:20:00,30.7,28.9,30.13,ENE,68,0.0,2.0,93,0.00,,---,0.00,VWS V14.01,2013-12-01 15:20:00,
2013-12-01 09:30:00,31.3,29.5,30.13,ENE,68,0.0,2.0,93,0.00,,---,0.00,VWS V14.01,2013-12-01 15:30:00,
2013-12-01 09:40:00,32.9,30.8,30.13,ENE,68,0.0,2.0,92,0.00,,---,0.00,VWS V14.01,2013-12-01 15:40:00,
2013-12-01 09:50:00,35.0,32.4,30.12,ENE,68,0.0,1.0,90,0.00,,---,0.00,VWS V14.01,2013-12-01 15:50:00,
2013-12-01 10:00:00,36.5,33.0,30.12,ENE,68,0.0,1.0,87,0.00,,---,0.00,VWS V14.01,2013-12-01 16:00:00,
2013-12-01 10:10:00,38.2,33.8,30.12,ENE,68,0.0,1.0,84,0.00,,---,0.00,VWS V14.01,2013-12-01 16:10:00,
2013-12-01 10:20:00,39.1,33.5,30.12,ENE,68,1.0,3.0,80,0.00,,---,0.00,VWS V14.01,2013-12-01 16:20:00,
2013-12-01 10:30:00,40.2,33.6,30.11,ENE,68,1.0,3.0,77,0.00,,---,0.00,VWS V14.01,2013-12-01 16:30:00,
2013-12-01 10:40:00,40.9,33.6,30.11,East,90,2.0,3.0,75,0.00,,---,0.00,VWS V14.01,2013-12-01 16:40:00,
2013-12-01 10:50:00,43.1,34.7,30.11,East,90,1.0,2.0,72,0.00,,---,0.00,VWS V14.01,2013-12-01 16:50:00,
2013-12-01 11:00:00,44.5,34.6,30.10,East,90,1.0,2.0,68,0.00,,---,0.00,VWS V14.01,2013-12-01 17:00:00,
2013-12-01 11:10:00,45.4,34.7,30.10,East,90,1.0,3.0,66,0.00,,---,0.00,VWS V14.01,2013-12-01 17:10:00,
2013-12-01 11:20:00,46.8,35.3,30.10,ESE,112,1.0,3.0,64,0.00,,---,0.00,VWS V14.01,2013-12-01 17:20:00,
2013-12-01 11:30:00,47.0,35.1,30.08,East,90,1.0,4.0,63,0.00,,---,0.00,VWS V14.01,2013-12-01 17:30:00,
2013-12-01 11:40:00,48.5,35.7,30.08,East,90,1.0,2.0,61,0.00,,---,0.00,VWS V14.01,2013-12-01 17:40:00,
2013-12-01 11:50:00,49.4,35.7,30.07,ESE,112,1.0,2.0,59,0.00,,---,0.00,VWS V14.01,2013-12-01 17:50:00,
2013-12-01 12:00:00,49.6,36.3,30.05,SW,225,1.0,3.0,60,0.00,,---,0.00,VWS V14.01,2013-12-01 18:00:00,
2013-12-01 12:10:00,50.1,36.3,30.05,WSW,248,2.0,3.0,59,0.00,,---,0.00,VWS V14.01,2013-12-01 18:10:00,
2013-12-01 12:20:00,50.4,36.6,30.05,SSE,158,2.0,4.0,59,0.00,,---,0.00,VWS V14.01,2013-12-01 18:20:00,
2013-12-01 12:30:00,50.8,36.6,30.03,SSE,158,2.0,4.0,58,0.00,,---,0.00,VWS V14.01,2013-12-01 18:30:00,
2013-12-01 12:40:00,52.0,36.8,30.03,SSE,158,1.0,4.0,56,0.00,,---,0.00,VWS V14.01,2013-12-01 18:40:00,
2013-12-01 12:50:00,52.3,37.1,30.03,WSW,248,2.0,5.0,56,0.00,,---,0.00,VWS V14.01,2013-12-01 18:50:00,
2013-12-01 13:00:00,53.1,36.9,30.03,WSW,248,2.0,4.0,54,0.00,,---,0.00,VWS V14.01,2013-12-01 19:00:00,
2013-12-01 13:10:00,53.6,37.4,30.03,WNW,292,2.0,3.0,54,0.00,,---,0.00,VWS V14.01,2013-12-01 19:10:00,
2013-12-01 13:20:00,54.4,37.6,30.02,West,270,2.0,4.0,53,0.00,,---,0.00,VWS V15.00,2013-12-01 19:20:00,
2013-12-01 13:24:00,54.7,37.4,30.02,West,264,2.0,2.0,52,0.00,,---,0.00,VWS V14.01,2013-12-01 19:24:00,
2013-12-01 13:27:00,54.8,37.0,30.02,West,264,2.0,2.0,51,0.00,,---,0.00,VWS V14.01,2013-12-01 19:27:00,
2013-12-01 13:29:00,55.0,37.2,30.01,West,264,1.0,3.0,51,0.00,,---,0.00,VWS V14.01,2013-12-01 19:29:00,
2013-12-01 13:30:00,55.0,37.2,30.01,West,264,2.0,3.0,51,0.00,,---,0.00,VWS V14.01,2013-12-01 19:30:00,
2013-12-01 13:32:00,55.0,37.2,30.01,West,264,1.0,2.0,51,0.00,,---,0.00,VWS V14.01,2013-12-01 19:32:00,
2013-12-01 13:35:00,55.3,37.5,30.01,West,264,1.0,2.0,51,0.00,,---,0.00,VWS V14.01,2013-12-01 19:35:00,
2013-12-01 13:37:00,55.4,37.1,30.01,WNW,289,1.0,2.0,50,0.00,,---,0.00,VWS V14.01,2013-12-01 19:37:00,
2013-12-01 13:38:00,55.4,37.1,30.01,WNW,289,2.0,2.0,50,0.00,,---,0.00,VWS V14.01,2013-12-01 19:38:00,
2013-12-01 13:40:00,55.6,37.3,30.01,WNW,289,1.0,3.0,50,0.00,,---,0.00,VWS V14.01,2013-12-01 19:40:00,
2013-12-01 13:42:00,55.7,37.4,30.01,WNW,289,0.0,2.0,50,0.00,,---,0.00,VWS V14.01,2013-12-01 19:42:00,
2013-12-01 13:43:00,55.7,37.4,30.01,WNW,289,0.0,2.0,50,0.00,,---,0.00,VWS V14.01,2013-12-01 19:43:00,
2013-12-01 13:45:00,56.0,37.6,30.00,WNW,289,0.0,2.0,50,0.00,,---,0.00,VWS V14.01,2013-12-01 19:45:00,
2013-12-01 13:47:00,56.3,37.4,30.00,WNW,290,1.0,2.0,49,0.00,,---,0.00,VWS V14.01,2013-12-01 19:47:00,
2013-12-01 13:48:00,56.3,37.4,30.00,WNW,290,1.0,2.0,49,0.00,,---,0.00,VWS V14.01,2013-12-01 19:48:00,
2013-12-01 13:50:00,56.5,37.1,30.00,WNW,290,0.0,2.0,48,0.00,,---,0.00,VWS V14.01,2013-12-01 19:50:00,
2013-12-01 13:52:00,56.7,37.2,30.00,WNW,290,0.0,2.0,48,0.00,,---,0.00,VWS V14.01,2013-12-01 19:52:00,
2013-12-01 13:53:00,56.7,37.2,30.00,WNW,290,0.0,2.0,48,0.00,,---,0.00,VWS V14.01,2013-12-01 19:53:00,
2013-12-01 13:55:00,56.9,37.4,30.00,WNW,290,0.0,2.0,48,0.00,,---,0.00,VWS V14.01,2013-12-01 19:55:00,
2013-12-01 13:57:00,57.0,37.0,30.00,WNW,290,1.0,2.0,47,0.00,,---,0.00,VWS V14.01,2013-12-01 19:57:00,
2013-12-01 13:58:00,57.0,37.0,30.00,NE,36,2.0,3.0,47,0.00,,---,0.00,VWS V14.01,2013-12-01 19:58:00,
2013-12-01 14:00:00,56.9,36.9,30.00,NE,36,1.0,3.0,47,0.00,,---,0.00,VWS V14.01,2013-12-01 20:00:00,
2013-12-01 14:02:00,56.7,36.7,30.00,NE,36,1.0,2.0,47,0.00,,---,0.00,VWS V14.01,2013-12-01 20:02:00,
2013-12-01 14:03:00,56.7,36.7,30.00,NE,36,0.0,2.0,47,0.00,,---,0.00,VWS V14.01,2013-12-01 20:03:00,
2013-12-01 14:06:00,56.7,36.7,30.00,NE,36,0.0,2.0,47,0.00,,---,0.00,VWS V14.01,2013-12-01 20:06:00,
2013-12-01 14:07:00,56.9,36.9,30.00,NE,36,0.0,2.0,47,0.00,,---,0.00,VWS V14.01,2013-12-01 20:07:00,
2013-12-01 14:08:00,56.9,36.9,30.00,NE,36,0.0,2.0,47,0.00,,---,0.00,VWS V14.01,2013-12-01 20:08:00,
2013-12-01 14:09:00,56.9,36.9,30.00,NE,36,0.0,2.0,47,0.00,,---,0.00,VWS V14.01,2013-12-01 20:09:00,
2013-12-01 14:10:00,56.9,36.9,30.00,NE,45,0.0,2.0,47,0.00,,---,0.00,VWS V15.00,2013-12-01 20:10:00,
2013-12-01 14:11:00,56.9,36.3,30.00,NE,38,1.0,1.0,46,0.00,,---,0.00,VWS V14.01,2013-12-01 20:11:00,
2013-12-01 14:12:00,56.9,36.3,30.00,NE,38,0.0,2.0,46,0.00,,---,0.00,VWS V14.01,2013-12-01 20:12:00,
2013-12-01 14:13:00,57.0,37.0,30.00,NE,38,0.0,2.0,47,0.00,,---,0.00,VWS V14.01,2013-12-01 20:13:00,
2013-12-01 14:14:00,57.0,37.0,30.00,NE,38,0.0,2.0,47,0.00,,---,0.00,VWS V14.01,2013-12-01 20:14:00,
2013-12-01 14:16:00,57.3,36.7,29.98,NE,38,0.0,2.0,46,0.00,,---,0.00,VWS V14.01,2013-12-01 20:16:00,
2013-12-01 14:17:00,57.5,36.9,29.98,NE,38,2.0,2.0,46,0.00,,---,0.00,VWS V14.01,2013-12-01 20:17:00,
2013-12-01 14:18:00,57.5,36.3,29.98,ENE,61,2.0,2.0,45,0.00,,---,0.00,VWS V14.01,2013-12-01 20:18:00,
2013-12-01 14:19:00,57.5,36.3,29.98,ENE,61,2.0,2.0,45,0.00,,---,0.00,VWS V14.01,2013-12-01 20:19:00,
2013-12-01 14:20:00,57.5,36.9,29.98,NE,45,0.0,2.0,46,0.00,,---,0.00,VWS V15.00,2013-12-01 20:20:00,
2013-12-01 14:21:00,57.5,36.9,29.98,ENE,61,1.0,1.0,46,0.00,,---,0.00,VWS V14.01,2013-12-01 20:21:00,
2013-12-01 14:22:00,57.3,36.7,29.98,East,91,1.0,2.0,46,0.00,,---,0.00,VWS V14.01,2013-12-01 20:22:00,
2013-12-01 14:24:00,57.3,36.7,29.98,East,91,1.0,2.0,46,0.00,,---,0.00,VWS V14.01,2013-12-01 20:24:00,
2013-12-01 14:26:00,57.6,37.0,29.98,SSW,195,4.0,4.0,46,0.00,,---,0.00,VWS V14.01,2013-12-01 20:26:00,
2013-12-01 14:27:00,57.8,36.6,29.98,South,179,1.0,4.0,45,0.00,,---,0.00,VWS V14.01,2013-12-01 20:27:00,
2013-12-01 14:28:00,57.8,36.6,29.98,South,179,2.0,4.0,45,0.00,,---,0.00,VWS V14.01,2013-12-01 20:28:00,
2013-12-01 14:29:00,57.6,36.4,29.98,South,179,2.0,4.0,45,0.00,,---,0.00,VWS V14.01,2013-12-01 20:29:00,
2013-12-01 14:30:00,57.5,36.9,29.97,South,180,1.0,4.0,46,0.00,,---,0.00,VWS V15.00,2013-12-01 20:30:00,
2013-12-01 14:31:00,57.5,36.9,29.97,South,179,1.0,2.0,46,0.00,,---,0.00,VWS V14.01,2013-12-01 20:31:00,
2013-12-01 14:32:00,57.5,36.9,29.97,South,179,0.0,2.0,46,0.00,,---,0.00,VWS V14.01,2013-12-01 20:32:00,
2013-12-01 14:33:00,57.5,36.9,29.97,South,179,0.0,2.0,46,0.00,,---,0.00,VWS V14.01,2013-12-01 20:33:00,
2013-12-01 14:34:00,57.5,36.9,29.97,South,179,1.0,2.0,46,0.00,,---,0.00,VWS V14.01,2013-12-01 20:34:00,
2013-12-01 14:36:00,57.6,37.0,29.97,South,183,2.0,3.0,46,0.00,,---,0.00,VWS V14.01,2013-12-01 20:36:00,
2013-12-01 14:37:00,57.6,36.4,29.97,South,183,1.0,3.0,45,0.00,,---,0.00,VWS V14.01,2013-12-01 20:37:00,
2013-12-01 14:38:00,57.6,36.4,29.97,South,183,0.0,3.0,45,0.00,,---,0.00,VWS V14.01,2013-12-01 20:38:00,
2013-12-01 14:39:00,57.8,36.6,29.97,South,183,0.0,3.0,45,0.00,,---,0.00,VWS V14.01,2013-12-01 20:39:00,
2013-12-01 14:40:00,58.0,36.8,29.97,South,180,1.0,3.0,45,0.00,,---,0.00,VWS V15.00,2013-12-01 20:40:00,
2013-12-01 14:41:00,58.0,36.8,29.97,South,183,0.0,0.0,45,0.00,,---,0.00,VWS V14.01,2013-12-01 20:41:00,
2013-12-01 14:42:00,58.1,36.3,29.97,South,183,0.0,0.0,44,0.00,,---,0.00,VWS V14.01,2013-12-01 20:42:00,
2013-12-01 14:43:00,58.1,36.3,29.97,South,183,0.0,1.0,44,0.00,,---,0.00,VWS V14.01,2013-12-01 20:43:00,
2013-12-01 14:44:00,58.3,36.5,29.97,South,183,0.0,1.0,44,0.00,,---,0.00,VWS V14.01,2013-12-01 20:44:00,
2013-12-01 14:46:00,58.4,36.6,29.97,South,183,2.0,2.0,44,0.00,,---,0.00,VWS V14.01,2013-12-01 20:46:00,
2013-12-01 14:47:00,58.3,36.5,29.97,South,183,2.0,3.0,44,0.00,,---,0.00,VWS V14.01,2013-12-01 20:47:00,
2013-12-01 14:48:00,58.3,37.1,29.97,South,183,1.0,3.0,45,0.00,,---,0.00,VWS V14.01,2013-12-01 20:48:00,
2013-12-01 14:49:00,58.3,37.1,29.97,South,183,1.0,3.0,45,0.00,,---,0.00,VWS V14.01,2013-12-01 20:49:00,
2013-12-01 14:50:00,58.3,36.5,29.97,South,180,1.0,3.0,44,0.00,,---,0.00,VWS V15.00,2013-12-01 20:50:00,
2013-12-01 14:51:00,58.3,36.5,29.97,South,183,0.0,0.0,44,0.00,,---,0.00,VWS V14.01,2013-12-01 20:51:00,
2013-12-01 14:52:00,58.3,36.5,29.97,South,183,1.0,1.0,44,0.00,,---,0.00,VWS V14.01,2013-12-01 20:52:00,
2013-12-01 14:53:00,58.3,36.5,29.97,South,183,1.0,1.0,44,0.00,,---,0.00,VWS V14.01,2013-12-01 20:53:00,
2013-12-01 14:54:00,58.1,35.7,29.97,South,183,1.0,2.0,43,0.00,,---,0.00,VWS V14.01,2013-12-01 20:54:00,
2013-12-01 14:56:00,58.1,36.3,29.97,South,183,0.0,2.0,44,0.00,,---,0.00,VWS V14.01,2013-12-01 20:56:00,
2013-12-01 14:57:00,58.0,36.2,29.97,South,183,1.0,2.0,44,0.00,,---,0.00,VWS V14.01,2013-12-01 20:57:00,
2013-12-01 14:58:00,57.8,36.0,29.97,South,183,0.0,2.0,44,0.00,,---,0.00,VWS V14.01,2013-12-01 20:58:00,
2013-12-01 14:59:00,57.8,36.0,29.97,South,183,1.0,2.0,44,0.00,,---,0.00,VWS V14.01,2013-12-01 20:59:00,
2013-12-01 15:00:00,57.6,35.9,29.96,South,180,1.0,2.0,44,0.00,,---,0.00,VWS V15.00,2013-12-01 21:00:00,
2013-12-01 15:01:00,57.6,35.9,29.96,South,183,1.0,1.0,44,0.00,,---,0.00,VWS V14.01,2013-12-01 21:01:00,
2013-12-01 15:02:00,57.5,35.8,29.96,South,183,2.0,3.0,44,0.00,,---,0.00,VWS V14.01,2013-12-01 21:02:00,
2013-12-01 15:03:00,57.3,36.2,29.96,South,183,2.0,3.0,45,0.00,,---,0.00,VWS V14.01,2013-12-01 21:03:00,
2013-12-01 15:04:00,57.2,36.1,29.96,South,183,0.0,3.0,45,0.00,,---,0.00,VWS V14.01,2013-12-01 21:04:00,
2013-12-01 15:06:00,57.2,36.1,29.96,South,183,0.0,3.0,45,0.00,,---,0.00,VWS V14.01,2013-12-01 21:06:00,
2013-12-01 15:07:00,57.2,36.1,29.96,South,183,2.0,3.0,45,0.00,,---,0.00,VWS V14.01,2013-12-01 21:07:00,
2013-12-01 15:08:00,57.2,36.1,29.96,South,183,1.0,3.0,45,0.00,,---,0.00,VWS V14.01,2013-12-01 21:08:00,
2013-12-01 15:09:00,57.2,36.1,29.96,South,183,0.0,3.0,45,0.00,,---,0.00,VWS V14.01,2013-12-01 21:09:00,
2013-12-01 15:10:00,57.0,35.9,29.96,South,180,1.0,3.0,45,0.00,,---,0.00,VWS V15.00,2013-12-01 21:10:00,
2013-12-01 15:11:00,57.0,36.4,29.96,South,183,1.0,2.0,46,0.00,,---,0.00,VWS V14.01,2013-12-01 21:11:00,
2013-12-01 15:12:00,57.0,36.4,29.96,South,183,0.0,2.0,46,0.00,,---,0.00,VWS V14.01,2013-12-01 21:12:00,
2013-12-01 15:13:00,57.0,36.4,29.96,South,183,0.0,2.0,46,0.00,,---,0.00,VWS V14.01,2013-12-01 21:13:00,
2013-12-01 15:14:00,57.0,36.4,29.96,South,183,0.0,2.0,46,0.00,,---,0.00,VWS V14.01,2013-12-01 21:14:00,
2013-12-01 15:16:00,57.0,36.4,29.95,South,183,0.0,2.0,46,0.00,,---,0.00,VWS V14.01,2013-12-01 21:16:00,
2013-12-01 15:18:00,57.2,36.6,29.95,South,183,0.0,2.0,46,0.00,,---,0.00,VWS V14.01,2013-12-01 21:18:00,
2013-12-01 15:19:00,57.3,36.7,29.95,South,183,0.0,2.0,46,0.00,,---,0.00,VWS V14.01,2013-12-01 21:19:00,
2013-12-01 15:20:00,57.6,37.0,29.95,South,180,0.0,2.0,46,0.00,,---,0.00,VWS V15.00,2013-12-01 21:20:00,
2013-12-01 15:21:00,57.8,36.6,29.95,South,183,0.0,0.0,45,0.00,,---,0.00,VWS V14.01,2013-12-01 21:21:00,
2013-12-01 15:23:00,58.1,36.9,29.95,South,184,3.0,3.0,45,0.00,,---,0.00,VWS V14.01,2013-12-01 21:23:00,
2013-12-01 15:24:00,58.1,36.9,29.95,SSE,156,0.0,4.0,45,0.00,,---,0.00,VWS V14.01,2013-12-01 21:24:00,
2013-12-01 15:26:00,58.4,37.2,29.95,SSW,209,2.0,4.0,45,0.00,,---,0.00,VWS V14.01,2013-12-01 21:26:00,
2013-12-01 15:28:00,58.6,36.8,29.95,SSW,209,1.0,4.0,44,0.00,,---,0.00,VWS V14.01,2013-12-01 21:28:00,
2013-12-01 15:29:00,58.6,36.2,29.95,SSW,209,1.0,4.0,43,0.00,,---,0.00,VWS V14.01,2013-12-01 21:29:00,
2013-12-01 15:30:00,58.6,36.2,29.95,SSW,209,1.0,4.0,43,0.00,,---,0.00,VWS V14.01,2013-12-01 21:30:00,
2013-12-01 15:31:00,58.6,36.2,29.95,SSW,209,2.0,3.0,43,0.00,,---,0.00,VWS V14.01,2013-12-01 21:31:00,
2013-12-01 15:33:00,58.6,36.2,29.95,SSW,209,3.0,3.0,43,0.00,,---,0.00,VWS V14.01,2013-12-01 21:33:00,
2013-12-01 15:34:00,58.6,36.8,29.95,SSW,209,1.0,3.0,44,0.00,,---,0.00,VWS V14.01,2013-12-01 21:34:00,
2013-12-01 15:35:00,58.6,36.8,29.95,SSW,209,2.0,3.0,44,0.00,,---,0.00,VWS V14.01,2013-12-01 21:35:00,
2013-12-01 15:36:00,58.6,36.2,29.95,SSW,209,2.0,3.0,43,0.00,,---,0.00,VWS V14.01,2013-12-01 21:36:00,
2013-12-01 15:38:00,58.6,36.2,29.95,SSW,209,2.0,3.0,43,0.00,,---,0.00,VWS V14.01,2013-12-01 21:38:00,
2013-12-01 15:39:00,58.6,36.2,29.95,SSW,209,3.0,3.0,43,0.00,,---,0.00,VWS V14.01,2013-12-01 21:39:00,
2013-12-01 15:40:00,58.6,36.2,29.95,SSW,209,2.0,3.0,43,0.00,,---,0.00,VWS V14.01,2013-12-01 21:40:00,
2013-12-01 15:41:00,58.4,36.0,29.95,SSW,209,2.0,2.0,43,0.00,,---,0.00,VWS V14.01,2013-12-01 21:41:00,
2013-12-01 15:43:00,58.4,36.0,29.95,SSW,209,2.0,3.0,43,0.00,,---,0.00,VWS V14.01,2013-12-01 21:43:00,
2013-12-01 15:44:00,58.4,36.0,29.95,SSW,209,1.0,3.0,43,0.00,,---,0.00,VWS V14.01,2013-12-01 21:44:00,
2013-12-01 15:45:00,58.4,36.0,29.95,SSW,209,1.0,3.0,43,0.00,,---,0.00,VWS V14.01,2013-12-01 21:45:00,
2013-12-01 15:46:00,58.4,36.0,29.95,SSW,209,2.0,3.0,43,0.00,,---,0.00,VWS V14.01,2013-12-01 21:46:00,
2013-12-01 15:48:00,58.4,36.0,29.95,SSW,209,1.0,3.0,43,0.00,,---,0.00,VWS V14.01,2013-12-01 21:48:00,
2013-12-01 15:49:00,58.3,35.9,29.95,SSW,209,3.0,3.0,43,0.00,,---,0.00,VWS V14.01,2013-12-01 21:49:00,
2013-12-01 15:50:00,58.3,35.9,29.95,SSW,209,3.0,3.0,43,0.00,,---,0.00,VWS V14.01,2013-12-01 21:50:00,
2013-12-01 15:51:00,58.4,36.0,29.95,SSW,209,1.0,3.0,43,0.00,,---,0.00,VWS V14.01,2013-12-01 21:51:00,
2013-12-01 15:53:00,58.3,35.9,29.95,SSW,209,2.0,3.0,43,0.00,,---,0.00,VWS V14.01,2013-12-01 21:53:00,
2013-12-01 15:54:00,58.3,35.9,29.95,SSW,209,1.0,3.0,43,0.00,,---,0.00,VWS V14.01,2013-12-01 21:54:00,
2013-12-01 15:55:00,58.3,35.9,29.95,SSW,209,2.0,3.0,43,0.00,,---,0.00,VWS V14.01,2013-12-01 21:55:00,
2013-12-01 15:56:00,58.3,35.9,29.95,SSW,209,2.0,3.0,43,0.00,,---,0.00,VWS V14.01,2013-12-01 21:56:00,
2013-12-01 15:58:00,58.1,36.3,29.95,SSW,209,2.0,3.0,44,0.00,,---,0.00,VWS V14.01,2013-12-01 21:58:00,
2013-12-01 15:59:00,58.1,36.3,29.95,SSW,209,2.0,3.0,44,0.00,,---,0.00,VWS V14.01,2013-12-01 21:59:00,
2013-12-01 16:00:00,58.0,35.7,29.94,SSW,209,1.0,3.0,43,0.00,,---,0.00,VWS V14.01,2013-12-01 22:00:00,
2013-12-01 16:01:00,57.8,36.0,29.94,SSW,209,1.0,2.0,44,0.00,,---,0.00,VWS V14.01,2013-12-01 22:01:00,
2013-12-01 16:03:00,57.6,35.9,29.94,SSW,209,2.0,2.0,44,0.00,,---,0.00,VWS V14.01,2013-12-01 22:03:00,
2013-12-01 16:04:00,57.5,35.8,29.94,SSW,209,1.0,2.0,44,0.00,,---,0.00,VWS V14.01,2013-12-01 22:04:00,
2013-12-01 16:05:00,57.5,35.8,29.94,SSW,209,1.0,2.0,44,0.00,,---,0.00,VWS V14.01,2013-12-01 22:05:00,
2013-12-01 16:06:00,57.3,35.6,29.94,SSW,209,1.0,2.0,44,0.00,,---,0.00,VWS V14.01,2013-12-01 22:06:00,
2013-12-01 16:09:00,57.0,35.9,29.94,SSW,209,1.0,2.0,45,0.00,,---,0.00,VWS V14.01,2013-12-01 22:09:00,
2013-12-01 16:10:00,57.0,35.9,29.94,SSW,209,1.0,2.0,45,0.00,,---,0.00,VWS V14.01,2013-12-01 22:10:00,
2013-12-01 16:11:00,56.9,35.8,29.94,SSW,209,1.0,2.0,45,0.00,,---,0.00,VWS V14.01,2013-12-01 22:11:00,
2013-12-01 16:14:00,56.7,35.6,29.94,SSW,209,2.0,3.0,45,0.00,,---,0.00,VWS V14.01,2013-12-01 22:14:00,
2013-12-01 16:15:00,56.6,35.5,29.95,SSW,209,2.0,3.0,45,0.00,,---,0.00,VWS V14.01,2013-12-01 22:15:00,
2013-12-01 16:16:00,56.6,35.5,29.95,SSW,209,3.0,3.0,45,0.00,,---,0.00,VWS V14.01,2013-12-01 22:16:00,
2013-12-01 16:19:00,56.5,35.4,29.95,SSW,209,2.0,3.0,45,0.00,,---,0.00,VWS V14.01,2013-12-01 22:19:00,
2013-12-01 16:20:00,56.5,36.0,29.95,SSW,209,2.0,3.0,46,0.00,,---,0.00,VWS V14.01,2013-12-01 22:20:00,
2013-12-01 16:21:00,56.5,36.0,29.95,SSW,209,2.0,3.0,46,0.00,,---,0.00,VWS V14.01,2013-12-01 22:21:00,
2013-12-01 16:24:00,56.2,36.3,29.95,SSW,210,2.0,4.0,47,0.00,,---,0.00,VWS V14.01,2013-12-01 22:24:00,
2013-12-01 16:25:00,56.0,36.1,29.95,SSW,210,2.0,4.0,47,0.00,,---,0.00,VWS V14.01,2013-12-01 22:25:00,
2013-12-01 16:26:00,56.0,36.1,29.95,SSW,210,2.0,4.0,47,0.00,,---,0.00,VWS V14.01,2013-12-01 22:26:00,
2013-12-01 16:29:00,55.9,36.0,29.95,SSW,210,1.0,4.0,47,0.00,,---,0.00,VWS V14.01,2013-12-01 22:29:00,
2013-12-01 16:30:00,55.7,35.8,29.94,SSW,210,2.0,4.0,47,0.00,,---,0.00,VWS V14.01,2013-12-01 22:30:00,
2013-12-01 16:31:00,55.7,36.3,29.94,SSW,210,2.0,2.0,48,0.00,,---,0.00,VWS V14.01,2013-12-01 22:31:00,
2013-12-01 16:34:00,55.4,36.1,29.94,SSW,210,2.0,2.0,48,0.00,,---,0.00,VWS V14.01,2013-12-01 22:34:00,
2013-12-01 16:35:00,55.4,36.1,29.94,SSW,210,2.0,2.0,48,0.00,,---,0.00,VWS V14.01,2013-12-01 22:35:00,
2013-12-01 16:36:00,55.3,36.0,29.94,SSW,210,3.0,3.0,48,0.00,,---,0.00,VWS V14.01,2013-12-01 22:36:00,
2013-12-01 16:39:00,55.1,35.8,29.94,SSW,210,2.0,3.0,48,0.00,,---,0.00,VWS V14.01,2013-12-01 22:39:00,
2013-12-01 16:40:00,55.1,36.3,29.94,SSW,210,2.0,3.0,49,0.00,,---,0.00,VWS V14.01,2013-12-01 22:40:00,
2013-12-01 16:41:00,55.1,36.3,29.94,SSW,210,2.0,2.0,49,0.00,,---,0.00,VWS V14.01,2013-12-01 22:41:00,
2013-12-01 16:44:00,55.0,35.7,29.94,SSW,210,2.0,3.0,48,0.00,,---,0.00,VWS V14.01,2013-12-01 22:44:00,
2013-12-01 16:45:00,55.0,35.7,29.94,SSW,210,2.0,3.0,48,0.00,,---,0.00,VWS V14.01,2013-12-01 22:45:00,
2013-12-01 16:46:00,55.0,36.2,29.94,SSW,210,2.0,3.0,49,0.00,,---,0.00,VWS V14.01,2013-12-01 22:46:00,
2013-12-01 16:49:00,54.8,36.0,29.94,SSW,210,2.0,3.0,49,0.00,,---,0.00,VWS V14.01,2013-12-01 22:49:00,
2013-12-01 16:50:00,54.8,36.0,29.94,SSW,210,2.0,3.0,49,0.00,,---,0.00,VWS V14.01,2013-12-01 22:50:00,
2013-12-01 16:51:00,54.8,36.0,29.94,SSW,210,1.0,3.0,49,0.00,,---,0.00,VWS V14.01,2013-12-01 22:51:00,
2013-12-01 16:55:00,54.5,35.8,29.94,SSW,210,1.0,3.0,49,0.00,,---,0.00,VWS V14.01,2013-12-01 22:55:00,
2013-12-01 16:56:00,54.5,35.8,29.94,SSW,213,1.0,3.0,49,0.00,,---,0.00,VWS V14.01,2013-12-01 22:56:00,
2013-12-01 16:59:00,54.4,35.7,29.94,SSW,213,1.0,3.0,49,0.00,,---,0.00,VWS V14.01,2013-12-01 22:59:00,
2013-12-01 17:00:00,54.4,35.1,29.94,SSW,213,1.0,3.0,48,0.00,,---,0.00,VWS V14.01,2013-12-01 23:00:00,
2013-12-01 17:01:00,54.2,35.0,29.94,SSW,213,1.0,2.0,48,0.00,,---,0.00,VWS V14.01,2013-12-01 23:01:00,
2013-12-01 17:02:00,54.2,35.0,29.94,SSW,213,1.0,2.0,48,0.00,,---,0.00,VWS V14.01,2013-12-01 23:02:00,
2013-12-01 17:05:00,54.2,35.0,29.94,SSW,213,2.0,2.0,48,0.00,,---,0.00,VWS V14.01,2013-12-01 23:05:00,
2013-12-01 17:06:00,54.1,34.9,29.94,SSW,213,2.0,3.0,48,0.00,,---,0.00,VWS V14.01,2013-12-01 23:06:00,
2013-12-01 17:07:00,54.1,35.4,29.94,SSW,213,2.0,3.0,49,0.00,,---,0.00,VWS V14.01,2013-12-01 23:07:00,
2013-12-01 17:10:00,54.1,35.4,29.94,SSW,213,2.0,3.0,49,0.00,,---,0.00,VWS V14.01,2013-12-01 23:10:00,
2013-12-01 17:11:00,54.1,35.4,29.94,SSW,213,2.0,2.0,49,0.00,,---,0.00,VWS V14.01,2013-12-01 23:11:00,
2013-12-01 17:12:00,53.9,35.2,29.94,SSW,213,1.0,2.0,49,0.00,,---,0.00,VWS V14.01,2013-12-01 23:12:00,
2013-12-01 17:15:00,53.9,35.2,29.94,SSW,213,2.0,2.0,49,0.00,,---,0.00,VWS V14.01,2013-12-01 23:15:00,
2013-12-01 17:16:00,53.9,35.2,29.94,SSW,213,3.0,3.0,49,0.00,,---,0.00,VWS V14.01,2013-12-01 23:16:00,
2013-12-01 17:17:00,53.9,35.2,29.94,SSW,213,2.0,3.0,49,0.00,,---,0.00,VWS V14.01,2013-12-01 23:17:00,
2013-12-01 17:20:00,53.9,35.2,29.94,SSW,213,2.0,3.0,49,0.00,,---,0.00,VWS V14.01,2013-12-01 23:20:00,
2013-12-01 17:21:00,53.9,35.2,29.94,SSW,213,1.0,2.0,49,0.00,,---,0.00,VWS V14.01,2013-12-01 23:21:00,
2013-12-01 17:22:00,53.9,35.2,29.94,SSW,213,1.0,2.0,49,0.00,,---,0.00,VWS V14.01,2013-12-01 23:22:00,
2013-12-01 17:25:00,53.8,35.1,29.94,SSW,213,0.0,2.0,49,0.00,,---,0.00,VWS V14.01,2013-12-01 23:25:00,
2013-12-01 17:26:00,53.8,35.1,29.94,SSW,213,0.0,2.0,49,0.00,,---,0.00,VWS V14.01,2013-12-01 23:26:00,
2013-12-01 17:27:00,53.8,35.1,29.94,SSW,213,0.0,2.0,49,0.00,,---,0.00,VWS V14.01,2013-12-01 23:27:00,
2013-12-01 17:30:00,53.6,35.4,29.94,SSW,213,1.0,2.0,50,0.00,,---,0.00,VWS V14.01,2013-12-01 23:30:00,
2013-12-01 17:31:00,53.5,35.3,29.94,SSW,213,1.0,2.0,50,0.00,,---,0.00,VWS V14.01,2013-12-01 23:31:00,
2013-12-01 17:32:00,53.5,35.3,29.94,SSW,213,2.0,2.0,50,0.00,,---,0.00,VWS V14.01,2013-12-01 23:32:00,
2013-12-01 17:35:00,53.3,35.2,29.94,SSW,213,2.0,2.0,50,0.00,,---,0.00,VWS V14.01,2013-12-01 23:35:00,
2013-12-01 17:36:00,53.3,35.2,29.94,SSW,213,2.0,2.0,50,0.00,,---,0.00,VWS V14.01,2013-12-01 23:36:00,
2013-12-01 17:37:00,53.2,35.1,29.94,SSW,213,2.0,2.0,50,0.00,,---,0.00,VWS V14.01,2013-12-01 23:37:00,
2013-12-01 17:40:00,53.2,35.1,29.94,WNW,296,2.0,3.0,50,0.00,,---,0.00,VWS V14.01,2013-12-01 23:40:00,
2013-12-01 17:41:00,53.2,35.1,29.94,WNW,296,1.0,2.0,50,0.00,,---,0.00,VWS V14.01,2013-12-01 23:41:00,
2013-12-01 17:42:00,53.2,35.1,29.94,WNW,296,2.0,2.0,50,0.00,,---,0.00,VWS V14.01,2013-12-01 23:42:00,
2013-12-01 17:45:00,53.2,35.1,29.94,WNW,296,1.0,2.0,50,0.00,,---,0.00,VWS V14.01,2013-12-01 23:45:00,
2013-12-01 17:46:00,53.2,35.1,29.94,WNW,296,1.0,2.0,50,0.00,,---,0.00,VWS V14.01,2013-12-01 23:46:00,
2013-12-01 17:47:00,53.1,35.0,29.94,WNW,296,1.0,2.0,50,0.00,,---,0.00,VWS V14.01,2013-12-01 23:47:00,
2013-12-01 17:50:00,53.1,35.0,29.94,WNW,296,1.0,2.0,50,0.00,,---,0.00,VWS V14.01,2013-12-01 23:50:00,
2013-12-01 17:51:00,52.9,34.8,29.94,WNW,296,1.0,2.0,50,0.00,,---,0.00,VWS V14.01,2013-12-01 23:51:00,
2013-12-01 17:52:00,52.9,34.8,29.94,WNW,296,2.0,2.0,50,0.00,,---,0.00,VWS V14.01,2013-12-01 23:52:00,
2013-12-01 17:55:00,52.8,34.7,29.94,WNW,296,1.0,2.0,50,0.00,,---,0.00,VWS V14.01,2013-12-01 23:55:00,
2013-12-01 17:56:00,52.6,34.5,29.94,WNW,296,2.0,2.0,50,0.00,,---,0.00,VWS V14.01,2013-12-01 23:56:00,
2013-12-01 17:57:00,52.6,35.0,29.94,WNW,297,3.0,3.0,51,0.00,,---,0.00,VWS V14.01,2013-12-01 23:57:00,
2013-12-01 18:00:00,52.3,34.7,29.94,NNW,328,2.0,4.0,51,0.00,,---,0.00,VWS V14.01,2013-12-02 00:00:00,
2013-12-01 18:01:00,52.3,34.7,29.94,NNW,333,3.0,4.0,51,0.00,,---,0.00,VWS V14.01,2013-12-02 00:01:00,
2013-12-01 18:02:00,52.3,34.7,29.94,NNW,333,2.0,4.0,51,0.00,,---,0.00,VWS V14.01,2013-12-02 00:02:00,
2013-12-01 18:05:00,52.2,34.6,29.94,NNW,333,1.0,4.0,51,0.00,,---,0.00,VWS V14.01,2013-12-02 00:05:00,
2013-12-01 18:06:00,52.2,34.6,29.94,NNW,333,1.0,4.0,51,0.00,,---,0.00,VWS V14.01,2013-12-02 00:06:00,
2013-12-01 18:07:00,52.0,34.5,29.94,NNW,333,1.0,4.0,51,0.00,,---,0.00,VWS V14.01,2013-12-02 00:07:00,
2013-12-01 18:10:00,51.9,34.4,29.94,NNW,333,0.0,4.0,51,0.00,,---,0.00,VWS V14.01,2013-12-02 00:10:00,
2013-12-01 18:11:00,51.9,34.4,29.94,NNW,333,1.0,1.0,51,0.00,,---,0.00,VWS V14.01,2013-12-02 00:11:00,
2013-12-01 18:12:00,51.7,34.2,29.94,NNW,333,1.0,1.0,51,0.00,,---,0.00,VWS V14.01,2013-12-02 00:12:00,
2013-12-01 18:15:00,51.6,34.1,29.94,NNW,333,1.0,1.0,51,0.00,,---,0.00,VWS V14.01,2013-12-02 00:15:00,
2013-12-01 18:16:00,51.6,34.1,29.94,NNW,333,1.0,2.0,51,0.00,,---,0.00,VWS V14.01,2013-12-02 00:16:00,
2013-12-01 18:17:00,51.6,34.1,29.94,NNW,333,0.0,2.0,51,0.00,,---,0.00,VWS V14.01,2013-12-02 00:17:00,
2013-12-01 18:18:00,51.4,34.4,29.94,NNW,333,0.0,2.0,52,0.00,,---,0.00,VWS V14.01,2013-12-02 00:18:00,
2013-12-01 18:20:00,51.3,34.3,29.94,NNW,333,0.0,2.0,52,0.00,,---,0.00,VWS V14.01,2013-12-02 00:20:00,
2013-12-01 18:21:00,51.3,34.3,29.94,NNW,333,0.0,0.0,52,0.00,,---,0.00,VWS V14.01,2013-12-02 00:21:00,
2013-12-01 18:22:00,51.1,34.1,29.94,NNW,333,0.0,0.0,52,0.00,,---,0.00,VWS V14.01,2013-12-02 00:22:00,
2013-12-01 18:23:00,51.1,34.6,29.94,NNW,333,0.0,0.0,53,0.00,,---,0.00,VWS V14.01,2013-12-02 00:23:00,
2013-12-01 18:25:00,50.8,34.3,29.94,NNW,333,0.0,0.0,53,0.00,,---,0.00,VWS V14.01,2013-12-02 00:25:00,
2013-12-01 18:26:00,50.7,34.2,29.94,NNW,333,0.0,0.0,53,0.00,,---,0.00,VWS V14.01,2013-12-02 00:26:00,
2013-12-01 18:27:00,50.5,34.0,29.94,NNW,333,0.0,0.0,53,0.00,,---,0.00,VWS V14.01,2013-12-02 00:27:00,
2013-12-01 18:28:00,50.4,34.4,29.94,NNW,333,0.0,0.0,54,0.00,,---,0.00,VWS V14.01,2013-12-02 00:28:00,
2013-12-01 18:30:00,50.1,34.1,29.93,NNW,333,0.0,0.0,54,0.00,,---,0.00,VWS V14.01,2013-12-02 00:30:00,
2013-12-01 18:31:00,49.9,33.9,29.93,NNW,333,0.0,0.0,54,0.00,,---,0.00,VWS V14.01,2013-12-02 00:31:00,
2013-12-01 18:32:00,49.9,33.9,29.93,NNW,334,0.0,0.0,54,0.00,,---,0.00,VWS V14.01,2013-12-02 00:32:00,
2013-12-01 18:33:00,49.8,33.8,29.93,NNW,333,0.0,0.0,54,0.00,,---,0.00,VWS V14.01,2013-12-02 00:33:00,
2013-12-01 18:35:00,49.5,34.0,29.93,NNW,333,0.0,0.0,55,0.00,,---,0.00,VWS V14.01,2013-12-02 00:35:00,
2013-12-01 18:36:00,49.4,33.9,29.93,NNW,333,0.0,0.0,55,0.00,,---,0.00,VWS V14.01,2013-12-02 00:36:00,
2013-12-01 18:37:00,49.2,34.2,29.93,NNW,333,1.0,1.0,56,0.00,,---,0.00,VWS V14.01,2013-12-02 00:37:00,
2013-12-01 18:38:00,49.2,34.2,29.93,NNW,333,1.0,1.0,56,0.00,,---,0.00,VWS V14.01,2013-12-02 00:38:00,
2013-12-01 18:40:00,48.8,34.3,29.93,NNW,338,0.0,2.0,57,0.00,,---,0.00,VWS V15.00,2013-12-02 00:40:00,
2013-12-01 18:41:00,48.6,34.1,29.93,NNW,334,1.0,2.0,57,0.00,,---,0.00,VWS V14.01,2013-12-02 00:41:00,
2013-12-01 18:42:00,48.3,34.2,29.93,NNW,334,1.0,2.0,58,0.00,,---,0.00,VWS V14.01,2013-12-02 00:42:00,
2013-12-01 18:43:00,48.2,34.1,29.93,NNW,334,1.0,2.0,58,0.00,,---,0.00,VWS V14.01,2013-12-02 00:43:00,
2013-12-01 18:46:00,47.6,34.0,29.94,NNW,334,1.0,2.0,59,0.00,,---,0.00,VWS V14.01,2013-12-02 00:46:00,
2013-12-01 18:47:00,47.3,33.7,29.94,NNW,334,1.0,2.0,59,0.00,,---,0.00,VWS V14.01,2013-12-02 00:47:00,
2013-12-01 18:48:00,47.0,33.0,29.94,NNW,334,2.0,2.0,58,0.00,,---,0.00,VWS V14.01,2013-12-02 00:48:00,
2013-12-01 18:49:00,46.8,32.8,29.94,NNW,335,2.0,2.0,58,0.00,,---,0.00,VWS V14.01,2013-12-02 00:49:00,
2013-12-01 18:50:00,46.5,33.0,29.94,NNW,338,1.0,2.0,59,0.00,,---,0.00,VWS V15.00,2013-12-02 00:50:00,
2013-12-01 18:51:00,46.4,32.9,29.94,NNW,335,1.0,2.0,59,0.00,,---,0.00,VWS V14.01,2013-12-02 00:51:00,
2013-12-01 18:52:00,46.2,32.7,29.94,NNW,335,1.0,2.0,59,0.00,,---,0.00,VWS V14.01,2013-12-02 00:52:00,
2013-12-01 18:53:00,46.2,32.7,29.94,NE,38,2.0,2.0,59,0.00,,---,0.00,VWS V14.01,2013-12-02 00:53:00,
2013-12-01 18:54:00,46.0,32.9,29.94,NE,56,1.0,3.0,60,0.00,,---,0.00,VWS V14.01,2013-12-02 00:54:00,
2013-12-01 18:56:00,45.7,32.6,29.94,NE,56,3.0,3.0,60,0.00,,---,0.00,VWS V14.01,2013-12-02 00:56:00,
2013-12-01 18:57:00,45.5,32.4,29.94,NE,56,2.0,3.0,60,0.00,,---,0.00,VWS V14.01,2013-12-02 00:57:00,
2013-12-01 18:58:00,45.4,32.3,29.94,NE,56,2.0,3.0,60,0.00,,---,0.00,VWS V14.01,2013-12-02 00:58:00,
2013-12-01 18:59:00,45.2,32.2,29.94,NE,56,2.0,3.0,60,0.00,,---,0.00,VWS V14.01,2013-12-02 00:59:00,
2013-12-01 19:00:00,45.1,32.1,29.94,NE,45,2.0,3.0,60,0.00,,---,0.00,VWS V15.00,2013-12-02 01:00:00,
2013-12-01 19:01:00,45.1,32.1,29.94,NE,56,2.0,3.0,60,0.00,,---,0.00,VWS V14.01,2013-12-02 01:01:00,
2013-12-01 19:02:00,44.9,31.9,29.94,NE,56,2.0,3.0,60,0.00,,---,0.00,VWS V14.01,2013-12-02 01:02:00,
2013-12-01 19:03:00,44.9,31.9,29.94,NE,56,2.0,3.0,60,0.00,,---,0.00,VWS V14.01,2013-12-02 01:03:00,
2013-12-01 19:04:00,44.8,31.8,29.94,NE,56,2.0,3.0,60,0.00,,---,0.00,VWS V14.01,2013-12-02 01:04:00,
2013-12-01 19:06:00,44.8,32.2,29.94,NE,56,1.0,3.0,61,0.00,,---,0.00,VWS V14.01,2013-12-02 01:06:00,
2013-12-01 19:07:00,44.6,32.4,29.94,NE,56,3.0,3.0,62,0.00,,---,0.00,VWS V14.01,2013-12-02 01:07:00,
2013-12-01 19:08:00,44.6,32.4,29.94,ENE,61,3.0,3.0,62,0.00,,---,0.00,VWS V14.01,2013-12-02 01:08:00,
2013-12-01 19:09:00,44.8,33.0,29.94,ENE,61,2.0,3.0,63,0.00,,---,0.00,VWS V14.01,2013-12-02 01:09:00,
2013-12-01 19:10:00,44.8,33.0,29.94,NE,45,2.0,3.0,63,0.00,,---,0.00,VWS V15.00,2013-12-02 01:10:00,
2013-12-01 19:11:00,44.8,33.0,29.94,ENE,61,2.0,3.0,63,0.00,,---,0.00,VWS V14.01,2013-12-02 01:11:00,
2013-12-01 19:12:00,44.9,33.1,29.94,ENE,64,3.0,3.0,63,0.00,,---,0.00,VWS V14.01,2013-12-02 01:12:00,
2013-12-01 19:13:00,44.9,33.1,29.94,ENE,64,2.0,3.0,63,0.00,,---,0.00,VWS V14.01,2013-12-02 01:13:00,
2013-12-01 19:14:00,44.8,33.0,29.94,ENE,64,2.0,3.0,63,0.00,,---,0.00,VWS V14.01,2013-12-02 01:14:00,
2013-12-01 19:16:00,44.6,33.2,29.93,ENE,72,3.0,3.0,64,0.00,,---,0.00,VWS V14.01,2013-12-02 01:16:00,
2013-12-01 19:17:00,44.6,33.2,29.93,ENE,72,2.0,3.0,64,0.00,,---,0.00,VWS V14.01,2013-12-02 01:17:00,
2013-12-01 19:18:00,44.6,33.2,29.93,ENE,72,3.0,3.0,64,0.00,,---,0.00,VWS V14.01,2013-12-02 01:18:00,
2013-12-01 19:19:00,44.5,33.5,29.93,ENE,71,3.0,3.0,65,0.00,,---,0.00,VWS V14.01,2013-12-02 01:19:00,
2013-12-01 19:20:00,44.5,33.5,29.93,ENE,68,3.0,3.0,65,0.00,,---,0.00,VWS V15.00,2013-12-02 01:20:00,
2013-12-01 19:21:00,44.3,33.3,29.93,ENE,72,2.0,2.0,65,0.00,,---,0.00,VWS V14.01,2013-12-02 01:21:00,
2013-12-01 19:22:00,44.2,33.2,29.93,ENE,72,1.0,3.0,65,0.00,,---,0.00,VWS V14.01,2013-12-02 01:22:00,
2013-12-01 19:23:00,44.2,33.2,29.93,ENE,71,2.0,3.0,65,0.00,,---,0.00,VWS V14.01,2013-12-02 01:23:00,
2013-12-01 19:24:00,44.1,33.1,29.93,ENE,71,1.0,3.0,65,0.00,,---,0.00,VWS V14.01,2013-12-02 01:24:00,
2013-12-01 19:26:00,44.1,33.1,29.93,ENE,72,1.0,3.0,65,0.00,,---,0.00,VWS V14.01,2013-12-02 01:26:00,
2013-12-01 19:28:00,43.9,32.9,29.93,ENE,72,1.0,3.0,65,0.00,,---,0.00,VWS V14.01,2013-12-02 01:28:00,
2013-12-01 19:29:00,43.9,32.9,29.93,ENE,71,1.0,3.0,65,0.00,,---,0.00,VWS V14.01,2013-12-02 01:29:00,
2013-12-01 19:30:00,43.9,32.9,29.93,ENE,68,1.0,3.0,65,0.00,,---,0.00,VWS V15.00,2013-12-02 01:30:00,
2013-12-01 19:31:00,43.8,32.8,29.93,ENE,71,1.0,1.0,65,0.00,,---,0.00,VWS V14.01,2013-12-02 01:31:00,
2013-12-01 19:32:00,43.8,32.8,29.93,ENE,71,1.0,1.0,65,0.00,,---,0.00,VWS V14.01,2013-12-02 01:32:00,
2013-12-01 19:33:00,43.6,32.6,29.93,ENE,71,1.0,1.0,65,0.00,,---,0.00,VWS V14.01,2013-12-02 01:33:00,
2013-12-01 19:34:00,43.6,32.6,29.93,ENE,71,0.0,1.0,65,0.00,,---,0.00,VWS V14.01,2013-12-02 01:34:00,
2013-12-01 19:36:00,43.3,32.3,29.93,ENE,71,0.0,1.0,65,0.00,,---,0.00,VWS V14.01,2013-12-02 01:36:00,
2013-12-01 19:37:00,43.3,32.3,29.93,ENE,71,2.0,2.0,65,0.00,,---,0.00,VWS V14.01,2013-12-02 01:37:00,
2013-12-01 19:38:00,43.2,32.2,29.93,ENE,71,1.0,2.0,65,0.00,,---,0.00,VWS V14.01,2013-12-02 01:38:00,
2013-12-01 19:39:00,43.1,32.5,29.93,ENE,72,1.0,2.0,66,0.00,,---,0.00,VWS V14.01,2013-12-02 01:39:00,
2013-12-01 19:40:00,42.9,32.3,29.93,ENE,68,1.0,2.0,66,0.00,,---,0.00,VWS V15.00,2013-12-02 01:40:00,
2013-12-01 19:41:00,42.9,32.3,29.93,ENE,71,1.0,2.0,66,0.00,,---,0.00,VWS V14.01,2013-12-02 01:41:00,
2013-12-01 19:42:00,42.8,32.2,29.93,ENE,71,2.0,2.0,66,0.00,,---,0.00,VWS V14.01,2013-12-02 01:42:00,
2013-12-01 19:43:00,42.8,32.2,29.93,ENE,71,1.0,2.0,66,0.00,,---,0.00,VWS V14.01,2013-12-02 01:43:00,
2013-12-01 19:44:00,42.8,32.2,29.93,ENE,72,0.0,2.0,66,0.00,,---,0.00,VWS V14.01,2013-12-02 01:44:00,
2013-12-01 19:46:00,42.8,32.2,29.93,ENE,71,0.0,2.0,66,0.00,,---,0.00,VWS V14.01,2013-12-02 01:46:00,
2013-12-01 19:47:00,42.8,32.2,29.93,ENE,72,0.0,2.0,66,0.00,,---,0.00,VWS V14.01,2013-12-02 01:47:00,
2013-12-01 19:48:00,42.8,32.2,29.93,ENE,71,0.0,2.0,66,0.00,,---,0.00,VWS V14.01,2013-12-02 01:48:00,
2013-12-01 19:49:00,42.8,32.2,29.93,ENE,71,0.0,2.0,66,0.00,,---,0.00,VWS V14.01,2013-12-02 01:49:00,
2013-12-01 19:50:00,42.8,32.2,29.93,ENE,68,0.0,2.0,66,0.00,,---,0.00,VWS V15.00,2013-12-02 01:50:00,
2013-12-01 19:51:00,42.8,32.2,29.93,ENE,71,0.0,0.0,66,0.00,,---,0.00,VWS V14.01,2013-12-02 01:51:00,
2013-12-01 19:52:00,42.8,32.2,29.93,ENE,71,1.0,1.0,66,0.00,,---,0.00,VWS V14.01,2013-12-02 01:52:00,
2013-12-01 19:53:00,42.8,32.2,29.93,ENE,71,0.0,1.0,66,0.00,,---,0.00,VWS V14.01,2013-12-02 01:53:00,
2013-12-01 19:54:00,42.6,32.0,29.93,ENE,71,1.0,1.0,66,0.00,,---,0.00,VWS V14.01,2013-12-02 01:54:00,
2013-12-01 19:55:00,42.6,32.0,29.93,ENE,71,1.0,1.0,66,0.00,,---,0.00,VWS V14.01,2013-12-02 01:55:00,
2013-12-01 19:56:00,42.6,32.0,29.93,ENE,71,0.0,1.0,66,0.00,,---,0.00,VWS V14.01,2013-12-02 01:56:00,
2013-12-01 19:57:00,42.6,32.0,29.93,ENE,71,0.0,1.0,66,0.00,,---,0.00,VWS V14.01,2013-12-02 01:57:00,
2013-12-01 19:58:00,42.6,32.0,29.93,ENE,71,0.0,1.0,66,0.00,,---,0.00,VWS V14.01,2013-12-02 01:58:00,
2013-12-01 19:59:00,42.5,32.0,29.93,ENE,71,0.0,1.0,66,0.00,,---,0.00,VWS V14.01,2013-12-02 01:59:00,
2013-12-01 20:00:00,42.5,32.0,29.93,ENE,71,0.0,1.0,66,0.00,,---,0.00,VWS V14.01,2013-12-02 02:00:00,
2013-12-01 20:01:00,42.3,31.8,29.93,ENE,71,1.0,1.0,66,0.00,,---,0.00,VWS V14.01,2013-12-02 02:01:00,
2013-12-01 20:02:00,42.3,31.8,29.93,ENE,71,1.0,2.0,66,0.00,,---,0.00,VWS V14.01,2013-12-02 02:02:00,
2013-12-01 20:03:00,42.2,32.0,29.93,ENE,71,0.0,2.0,67,0.00,,---,0.00,VWS V14.01,2013-12-02 02:03:00,
2013-12-01 20:05:00,42.2,32.0,29.93,ENE,71,0.0,2.0,67,0.00,,---,0.00,VWS V14.01,2013-12-02 02:05:00,
2013-12-01 20:06:00,42.1,32.0,29.93,ENE,71,0.0,2.0,67,0.00,,---,0.00,VWS V14.01,2013-12-02 02:06:00,
2013-12-01 20:07:00,42.1,32.0,29.93,ENE,71,0.0,2.0,67,0.00,,---,0.00,VWS V14.01,2013-12-02 02:07:00,
2013-12-01 20:08:00,41.9,31.8,29.93,ENE,71,0.0,2.0,67,0.00,,---,0.00,VWS V14.01,2013-12-02 02:08:00,
2013-12-01 20:09:00,41.9,31.8,29.93,ENE,71,0.0,2.0,67,0.00,,---,0.00,VWS V14.01,2013-12-02 02:09:00,
2013-12-01 20:10:00,41.9,32.1,29.93,ENE,71,0.0,2.0,68,0.00,,---,0.00,VWS V14.01,2013-12-02 02:10:00,
2013-12-01 20:12:00,41.8,32.0,29.93,ENE,71,0.0,0.0,68,0.00,,---,0.00,VWS V14.01,2013-12-02 02:12:00,
2013-12-01 20:13:00,41.6,31.8,29.93,ENE,71,0.0,0.0,68,0.00,,---,0.00,VWS V14.01,2013-12-02 02:13:00,
2013-12-01 20:14:00,41.6,32.2,29.93,ENE,71,0.0,0.0,69,0.00,,---,0.00,VWS V14.01,2013-12-02 02:14:00,
2013-12-01 20:15:00,41.6,32.2,29.92,ENE,71,0.0,0.0,69,0.00,,---,0.00,VWS V14.01,2013-12-02 02:15:00,
2013-12-01 20:17:00,41.5,32.1,29.92,ENE,71,0.0,0.0,69,0.00,,---,0.00,VWS V14.01,2013-12-02 02:17:00,
2013-12-01 20:18:00,41.3,31.9,29.92,ENE,71,0.0,0.0,69,0.00,,---,0.00,VWS V14.01,2013-12-02 02:18:00,
2013-12-01 20:20:00,41.2,31.8,29.92,ENE,71,0.0,0.0,69,0.00,,---,0.00,VWS V14.01,2013-12-02 02:20:00,
2013-12-01 20:22:00,41.1,32.1,29.92,ENE,71,0.0,0.0,70,0.00,,---,0.00,VWS V14.01,2013-12-02 02:22:00,
2013-12-01 20:23:00,40.9,31.9,29.92,ENE,71,0.0,0.0,70,0.00,,---,0.00,VWS V14.01,2013-12-02 02:23:00,
2013-12-01 20:25:00,40.9,31.9,29.92,ENE,71,0.0,0.0,70,0.00,,---,0.00,VWS V14.01,2013-12-02 02:25:00,
2013-12-01 20:27:00,40.8,32.1,29.92,ENE,71,0.0,0.0,71,0.00,,---,0.00,VWS V14.01,2013-12-02 02:27:00,
2013-12-01 20:28:00,40.6,32.0,29.92,ENE,71,0.0,0.0,71,0.00,,---,0.00,VWS V14.01,2013-12-02 02:28:00,
2013-12-01 20:30:00,40.6,32.0,29.92,ENE,71,0.0,0.0,71,0.00,,---,0.00,VWS V14.01,2013-12-02 02:30:00,
2013-12-01 20:31:00,40.5,31.9,29.92,ENE,71,0.0,0.0,71,0.00,,---,0.00,VWS V14.01,2013-12-02 02:31:00,
2013-12-01 20:32:00,40.5,32.2,29.92,ENE,71,0.0,0.0,72,0.00,,---,0.00,VWS V14.01,2013-12-02 02:32:00,
2013-12-01 20:33:00,40.5,32.2,29.92,ENE,71,0.0,0.0,72,0.00,,---,0.00,VWS V14.01,2013-12-02 02:33:00,
2013-12-01 20:35:00,40.5,32.2,29.92,ENE,71,0.0,0.0,72,0.00,,---,0.00,VWS V14.01,2013-12-02 02:35:00,
2013-12-01 20:36:00,40.5,32.2,29.92,ENE,71,0.0,0.0,72,0.00,,---,0.00,VWS V14.01,2013-12-02 02:36:00,
2013-12-01 20:37:00,40.3,32.0,29.92,ENE,71,0.0,0.0,72,0.00,,---,0.00,VWS V14.01,2013-12-02 02:37:00,
2013-12-01 20:38:00,40.3,32.0,29.92,ENE,71,0.0,0.0,72,0.00,,---,0.00,VWS V14.01,2013-12-02 02:38:00,
2013-12-01 20:40:00,40.3,32.0,29.92,ENE,71,0.0,0.0,72,0.00,,---,0.00,VWS V14.01,2013-12-02 02:40:00,
2013-12-01 20:41:00,40.3,32.0,29.92,ENE,71,0.0,0.0,72,0.00,,---,0.00,VWS V14.01,2013-12-02 02:41:00,
2013-12-01 20:42:00,40.3,32.3,29.92,ENE,71,0.0,0.0,73,0.00,,---,0.00,VWS V14.01,2013-12-02 02:42:00,
2013-12-01 20:43:00,40.2,32.2,29.92,ENE,71,0.0,0.0,73,0.00,,---,0.00,VWS V14.01,2013-12-02 02:43:00,
2013-12-01 20:45:00,40.2,32.2,29.91,ENE,71,0.0,0.0,73,0.00,,---,0.00,VWS V14.01,2013-12-02 02:45:00,
2013-12-01 20:46:00,40.2,32.2,29.91,ENE,71,0.0,0.0,73,0.00,,---,0.00,VWS V14.01,2013-12-02 02:46:00,
2013-12-01 20:47:00,40.2,32.2,29.91,ENE,71,0.0,0.0,73,0.00,,---,0.00,VWS V14.01,2013-12-02 02:47:00,
2013-12-01 20:48:00,40.2,31.9,29.91,ENE,71,0.0,0.0,72,0.00,,---,0.00,VWS V14.01,2013-12-02 02:48:00,
2013-12-01 20:50:00,40.1,31.8,29.91,ENE,71,0.0,0.0,72,0.00,,---,0.00,VWS V14.01,2013-12-02 02:50:00,
2013-12-01 20:51:00,40.1,31.8,29.91,ENE,71,0.0,0.0,72,0.00,,---,0.00,VWS V14.01,2013-12-02 02:51:00,
2013-12-01 20:52:00,40.1,31.8,29.91,ENE,71,0.0,0.0,72,0.00,,---,0.00,VWS V14.01,2013-12-02 02:52:00,
2013-12-01 20:53:00,40.1,31.8,29.91,ENE,71,0.0,0.0,72,0.00,,---,0.00,VWS V14.01,2013-12-02 02:53:00,
2013-12-01 20:55:00,39.9,31.6,29.91,ENE,71,0.0,0.0,72,0.00,,---,0.00,VWS V14.01,2013-12-02 02:55:00,
2013-12-01 20:56:00,39.9,31.6,29.91,ENE,71,0.0,0.0,72,0.00,,---,0.00,VWS V14.01,2013-12-02 02:56:00,
2013-12-01 20:57:00,39.9,31.6,29.91,ENE,71,0.0,0.0,72,0.00,,---,0.00,VWS V14.01,2013-12-02 02:57:00,
2013-12-01 20:58:00,39.8,31.5,29.91,ENE,71,0.0,0.0,72,0.00,,---,0.00,VWS V14.01,2013-12-02 02:58:00,
2013-12-01 21:00:00,39.8,31.5,29.91,ENE,68,0.0,0.0,72,0.00,,---,0.00,VWS V15.00,2013-12-02 03:00:00,
2013-12-01 21:01:00,39.6,31.3,29.91,ENE,71,0.0,0.0,72,0.00,,---,0.00,VWS V14.01,2013-12-02 03:01:00,
2013-12-01 21:02:00,39.6,31.7,29.91,ENE,71,0.0,0.0,73,0.00,,---,0.00,VWS V14.01,2013-12-02 03:02:00,
2013-12-01 21:03:00,39.5,31.6,29.91,ENE,71,0.0,0.0,73,0.00,,---,0.00,VWS V14.01,2013-12-02 03:03:00,
2013-12-01 21:06:00,39.3,31.4,29.91,ENE,71,0.0,0.0,73,0.00,,---,0.00,VWS V14.01,2013-12-02 03:06:00,
2013-12-01 21:07:00,39.3,31.4,29.91,ENE,71,0.0,0.0,73,0.00,,---,0.00,VWS V14.01,2013-12-02 03:07:00,
2013-12-01 21:09:00,39.2,31.3,29.91,ENE,71,0.0,0.0,73,0.00,,---,0.00,VWS V14.01,2013-12-02 03:09:00,
2013-12-01 21:10:00,39.2,31.3,29.91,ENE,68,0.0,0.0,73,0.00,,---,0.00,VWS V15.00,2013-12-02 03:10:00,
2013-12-01 21:11:00,39.1,31.2,29.91,ENE,71,0.0,0.0,73,0.00,,---,0.00,VWS V14.01,2013-12-02 03:11:00,
2013-12-01 21:12:00,39.1,31.2,29.91,ENE,71,0.0,0.0,73,0.00,,---,0.00,VWS V14.01,2013-12-02 03:12:00,
2013-12-01 21:14:00,38.9,31.3,29.91,ENE,71,0.0,0.0,74,0.00,,---,0.00,VWS V14.01,2013-12-02 03:14:00,
2013-12-01 21:16:00,38.9,31.3,29.90,ENE,71,0.0,0.0,74,0.00,,---,0.00,VWS V14.01,2013-12-02 03:16:00,
2013-12-01 21:17:00,38.8,31.2,29.90,ENE,71,0.0,0.0,74,0.00,,---,0.00,VWS V14.01,2013-12-02 03:17:00,
2013-12-01 21:19:00,38.6,31.0,29.90,ENE,71,0.0,0.0,74,0.00,,---,0.00,VWS V14.01,2013-12-02 03:19:00,
2013-12-01 21:20:00,38.5,31.3,29.90,ENE,68,0.0,0.0,75,0.00,,---,0.00,VWS V15.00,2013-12-02 03:20:00,
2013-12-01 21:21:00,38.5,31.3,29.90,ENE,71,0.0,0.0,75,0.00,,---,0.00,VWS V14.01,2013-12-02 03:21:00,
2013-12-01 21:22:00,38.3,31.1,29.90,ENE,71,0.0,0.0,75,0.00,,---,0.00,VWS V14.01,2013-12-02 03:22:00,
2013-12-01 21:24:00,38.2,31.0,29.90,ENE,71,0.0,0.0,75,0.00,,---,0.00,VWS V14.01,2013-12-02 03:24:00,
2013-12-01 21:26:00,38.0,31.1,29.90,ENE,71,0.0,1.0,76,0.00,,---,0.00,VWS V14.01,2013-12-02 03:26:00,
2013-12-01 21:27:00,37.9,31.0,29.90,ENE,71,2.0,2.0,76,0.00,,---,0.00,VWS V14.01,2013-12-02 03:27:00,
2013-12-01 21:29:00,37.9,31.0,29.90,ENE,71,1.0,2.0,76,0.00,,---,0.00,VWS V14.01,2013-12-02 03:29:00,
2013-12-01 21:30:00,37.8,30.9,29.90,ENE,68,1.0,2.0,76,0.00,,---,0.00,VWS V15.00,2013-12-02 03:30:00,
2013-12-01 21:31:00,37.8,30.9,29.90,ENE,71,1.0,2.0,76,0.00,,---,0.00,VWS V14.01,2013-12-02 03:31:00,
2013-12-01 21:32:00,37.8,30.9,29.90,ENE,71,1.0,2.0,76,0.00,,---,0.00,VWS V14.01,2013-12-02 03:32:00,
2013-12-01 21:33:00,37.8,31.2,29.90,ENE,71,0.0,2.0,77,0.00,,---,0.00,VWS V14.01,2013-12-02 03:33:00,
2013-12-01 21:34:00,37.8,31.2,29.90,ENE,71,0.0,2.0,77,0.00,,---,0.00,VWS V14.01,2013-12-02 03:34:00,
2013-12-01 21:36:00,37.8,30.9,29.90,ENE,71,1.0,2.0,76,0.00,,---,0.00,VWS V14.01,2013-12-02 03:36:00,
2013-12-01 21:37:00,37.8,30.9,29.90,ENE,71,2.0,2.0,76,0.00,,---,0.00,VWS V14.01,2013-12-02 03:37:00,
2013-12-01 21:38:00,37.8,30.9,29.90,ENE,71,1.0,2.0,76,0.00,,---,0.00,VWS V14.01,2013-12-02 03:38:00,
2013-12-01 21:39:00,37.8,30.9,29.90,ENE,71,2.0,2.0,76,0.00,,---,0.00,VWS V14.01,2013-12-02 03:39:00,
2013-12-01 21:40:00,37.8,31.2,29.90,ENE,68,1.0,2.0,77,0.00,,---,0.00,VWS V15.00,2013-12-02 03:40:00,
2013-12-01 21:42:00,37.8,31.2,29.90,ENE,71,1.0,2.0,77,0.00,,---,0.00,VWS V14.01,2013-12-02 03:42:00,
2013-12-01 21:43:00,37.8,31.2,29.90,ENE,71,1.0,2.0,77,0.00,,---,0.00,VWS V14.01,2013-12-02 03:43:00,
2013-12-01 21:44:00,37.9,31.4,29.90,ENE,71,0.0,2.0,77,0.00,,---,0.00,VWS V14.01,2013-12-02 03:44:00,
2013-12-01 21:47:00,38.0,31.4,29.91,ENE,71,0.0,2.0,77,0.00,,---,0.00,VWS V14.01,2013-12-02 03:47:00,
2013-12-01 21:48:00,38.2,31.3,29.91,ENE,71,0.0,2.0,76,0.00,,---,0.00,VWS V14.01,2013-12-02 03:48:00,
2013-12-01 21:49:00,38.2,31.3,29.91,ENE,71,2.0,2.0,76,0.00,,---,0.00,VWS V14.01,2013-12-02 03:49:00,
2013-12-01 21:50:00,38.2,31.3,29.91,ENE,68,1.0,2.0,76,0.00,,---,0.00,VWS V15.00,2013-12-02 03:50:00,
2013-12-01 21:52:00,38.3,31.4,29.91,ENE,71,0.0,2.0,76,0.00,,---,0.00,VWS V14.01,2013-12-02 03:52:00,
2013-12-01 21:53:00,38.3,31.4,29.91,ENE,71,0.0,2.0,76,0.00,,---,0.00,VWS V14.01,2013-12-02 03:53:00,
2013-12-01 21:54:00,38.3,31.4,29.91,ENE,71,0.0,2.0,76,0.00,,---,0.00,VWS V14.01,2013-12-02 03:54:00,
2013-12-01 21:57:00,38.3,31.1,29.91,ENE,71,0.0,2.0,75,0.00,,---,0.00,VWS V14.01,2013-12-02 03:57:00,
2013-12-01 21:58:00,38.3,31.1,29.91,ENE,71,0.0,2.0,75,0.00,,---,0.00,VWS V14.01,2013-12-02 03:58:00,
2013-12-01 21:59:00,38.3,31.1,29.91,ENE,71,0.0,2.0,75,0.00,,---,0.00,VWS V14.01,2013-12-02 03:59:00,
2013-12-01 22:00:00,38.2,31.0,29.90,ENE,68,0.0,2.0,75,0.00,,---,0.00,VWS V15.00,2013-12-02 04:00:00,
2013-12-01 22:02:00,38.2,31.0,29.90,ENE,71,0.0,0.0,75,0.00,,---,0.00,VWS V14.01,2013-12-02 04:02:00,
2013-12-01 22:03:00,38.2,31.0,29.90,ENE,71,0.0,0.0,75,0.00,,---,0.00,VWS V14.01,2013-12-02 04:03:00,
2013-12-01 22:04:00,38.2,31.0,29.90,ENE,71,0.0,0.0,75,0.00,,---,0.00,VWS V14.01,2013-12-02 04:04:00,
2013-12-01 22:07:00,37.9,30.4,29.90,ENE,71,0.0,0.0,74,0.00,,---,0.00,VWS V14.01,2013-12-02 04:07:00,
2013-12-01 22:08:00,37.8,30.3,29.90,ENE,71,0.0,0.0,74,0.00,,---,0.00,VWS V14.01,2013-12-02 04:08:00,
2013-12-01 22:09:00,37.6,29.7,29.90,ENE,71,1.0,1.0,73,0.00,,---,0.00,VWS V14.01,2013-12-02 04:09:00,
2013-12-01 22:10:00,37.3,29.8,29.90,ENE,68,0.0,1.0,74,0.00,,---,0.00,VWS V15.00,2013-12-02 04:10:00,
2013-12-01 22:12:00,37.2,29.7,29.90,ENE,71,1.0,1.0,74,0.00,,---,0.00,VWS V14.01,2013-12-02 04:12:00,
2013-12-01 22:13:00,37.0,29.5,29.90,ENE,71,1.0,1.0,74,0.00,,---,0.00,VWS V14.01,2013-12-02 04:13:00,
2013-12-01 22:14:00,37.0,29.8,29.90,ENE,71,0.0,1.0,75,0.00,,---,0.00,VWS V14.01,2013-12-02 04:14:00,
2013-12-01 22:17:00,36.6,29.4,29.88,ENE,71,1.0,2.0,75,0.00,,---,0.00,VWS V14.01,2013-12-02 04:17:00,
2013-12-01 22:18:00,36.6,29.8,29.88,ENE,71,2.0,2.0,76,0.00,,---,0.00,VWS V14.01,2013-12-02 04:18:00,
2013-12-01 22:19:00,36.5,29.7,29.88,ENE,71,1.0,2.0,76,0.00,,---,0.00,VWS V14.01,2013-12-02 04:19:00,
2013-12-01 22:20:00,36.3,29.5,29.88,ENE,68,1.0,2.0,76,0.00,,---,0.00,VWS V15.00,2013-12-02 04:20:00,
2013-12-01 22:22:00,36.2,29.4,29.88,ENE,71,0.0,1.0,76,0.00,,---,0.00,VWS V14.01,2013-12-02 04:22:00,
2013-12-01 22:23:00,36.2,29.7,29.88,ENE,71,0.0,1.0,77,0.00,,---,0.00,VWS V14.01,2013-12-02 04:23:00,
2013-12-01 22:24:00,36.2,29.7,29.88,ENE,71,1.0,1.0,77,0.00,,---,0.00,VWS V14.01,2013-12-02 04:24:00,
2013-12-01 22:27:00,35.9,29.4,29.88,ENE,71,0.0,2.0,77,0.00,,---,0.00,VWS V14.01,2013-12-02 04:27:00,
2013-12-01 22:28:00,35.8,29.3,29.88,ENE,71,0.0,2.0,77,0.00,,---,0.00,VWS V14.01,2013-12-02 04:28:00,
2013-12-01 22:29:00,35.6,29.1,29.88,ENE,71,0.0,2.0,77,0.00,,---,0.00,VWS V14.01,2013-12-02 04:29:00,
2013-12-01 22:30:00,35.6,29.1,29.87,ENE,68,0.0,2.0,77,0.00,,---,0.00,VWS V15.00,2013-12-02 04:30:00,
2013-12-01 22:32:00,35.3,28.8,29.87,ENE,71,0.0,0.0,77,0.00,,---,0.00,VWS V14.01,2013-12-02 04:32:00,
2013-12-01 22:33:00,35.2,28.7,29.87,ENE,71,0.0,0.0,77,0.00,,---,0.00,VWS V14.01,2013-12-02 04:33:00,
2013-12-01 22:34:00,35.0,28.5,29.87,ENE,71,0.0,1.0,77,0.00,,---,0.00,VWS V14.01,2013-12-02 04:34:00,
2013-12-01 22:38:00,34.7,28.5,29.87,East,98,4.0,4.0,78,0.00,,---,0.00,VWS V14.01,2013-12-02 04:38:00,
2013-12-01 22:39:00,34.7,28.9,29.87,East,98,3.0,4.0,79,0.00,,---,0.00,VWS V14.01,2013-12-02 04:39:00,
2013-12-01 22:40:00,34.6,28.8,29.87,East,90,1.0,4.0,79,0.00,,---,0.00,VWS V15.00,2013-12-02 04:40:00,
2013-12-01 22:43:00,34.0,28.2,29.87,East,98,2.0,2.0,79,0.00,,---,0.00,VWS V14.01,2013-12-02 04:43:00,
2013-12-01 22:44:00,33.8,28.0,29.87,ESE,109,3.0,4.0,79,0.00,,---,0.00,VWS V14.01,2013-12-02 04:44:00,
2013-12-01 22:48:00,34.3,29.1,29.86,ESE,110,2.0,4.0,81,0.00,,---,0.00,VWS V14.01,2013-12-02 04:48:00,
2013-12-01 22:49:00,34.4,29.2,29.86,ESE,110,2.0,4.0,81,0.00,,---,0.00,VWS V14.01,2013-12-02 04:49:00,
2013-12-01 22:50:00,34.3,29.1,29.86,ESE,112,2.0,4.0,81,0.00,,---,0.00,VWS V15.00,2013-12-02 04:50:00,
2013-12-01 22:53:00,34.1,28.9,29.86,ESE,110,0.0,2.0,81,0.00,,---,0.00,VWS V14.01,2013-12-02 04:53:00,
2013-12-01 22:54:00,34.1,28.9,29.86,ESE,110,0.0,2.0,81,0.00,,---,0.00,VWS V14.01,2013-12-02 04:54:00,
2013-12-01 22:58:00,34.1,29.2,29.86,ESE,110,0.0,2.0,82,0.00,,---,0.00,VWS V14.01,2013-12-02 04:58:00,
2013-12-01 22:59:00,34.1,28.9,29.86,ESE,110,1.0,2.0,81,0.00,,---,0.00,VWS V14.01,2013-12-02 04:59:00,
2013-12-01 23:00:00,34.1,29.2,29.86,ESE,112,1.0,2.0,82,0.00,,---,0.00,VWS V15.00,2013-12-02 05:00:00,
2013-12-01 23:01:00,34.1,29.2,29.86,ESE,110,1.0,2.0,82,0.00,,---,0.00,VWS V14.01,2013-12-02 05:01:00,
2013-12-01 23:06:00,34.4,29.5,29.86,ESE,110,1.0,2.0,82,0.00,,---,0.00,VWS V14.01,2013-12-02 05:06:00,
2013-12-01 23:10:00,34.6,29.7,29.86,ESE,112,1.0,2.0,82,0.00,,---,0.00,VWS V15.00,2013-12-02 05:10:00,
2013-12-01 23:11:00,34.6,29.7,29.86,ESE,111,0.0,0.0,82,0.00,,---,0.00,VWS V14.01,2013-12-02 05:11:00,
2013-12-01 23:16:00,34.6,29.7,29.85,ESE,111,0.0,0.0,82,0.00,,---,0.00,VWS V14.01,2013-12-02 05:16:00,
2013-12-01 23:20:00,34.4,29.5,29.85,ESE,112,0.0,1.0,82,0.00,,---,0.00,VWS V15.00,2013-12-02 05:20:00,
2013-12-01 23:21:00,34.3,29.4,29.85,ESE,111,0.0,1.0,82,0.00,,---,0.00,VWS V14.01,2013-12-02 05:21:00,
2013-12-01 23:26:00,33.8,28.9,29.85,ESE,111,0.0,2.0,82,0.00,,---,0.00,VWS V14.01,2013-12-02 05:26:00,
2013-12-01 23:27:00,33.7,28.8,29.85,ESE,111,0.0,2.0,82,0.00,,---,0.00,VWS V14.01,2013-12-02 05:27:00,
2013-12-01 23:30:00,33.1,28.2,29.84,ESE,112,1.0,2.0,82,0.00,,---,0.00,VWS V15.00,2013-12-02 05:30:00,
2013-12-01 23:31:00,33.1,28.2,29.84,ESE,111,1.0,2.0,82,0.00,,---,0.00,VWS V14.01,2013-12-02 05:31:00,
2013-12-01 23:32:00,32.8,27.9,29.84,ESE,111,2.0,2.0,82,0.00,,---,0.00,VWS V14.01,2013-12-02 05:32:00,
2013-12-01 23:36:00,32.2,27.3,29.84,SSE,150,2.0,3.0,82,0.00,,---,0.00,VWS V14.01,2013-12-02 05:36:00,
2013-12-01 23:37:00,32.2,27.6,29.84,SSE,150,2.0,3.0,83,0.00,,---,0.00,VWS V14.01,2013-12-02 05:37:00,
2013-12-01 23:40:00,32.4,28.1,29.84,SSE,158,2.0,3.0,84,0.00,,---,0.00,VWS V15.00,2013-12-02 05:40:00,
2013-12-01 23:41:00,32.4,28.1,29.84,SSW,193,2.0,3.0,84,0.00,,---,0.00,VWS V14.01,2013-12-02 05:41:00,
2013-12-01 23:42:00,32.4,28.1,29.84,SSW,193,2.0,3.0,84,0.00,,---,0.00,VWS V14.01,2013-12-02 05:42:00,
2013-12-01 23:46:00,32.4,28.1,29.84,SSW,193,1.0,3.0,84,0.00,,---,0.00,VWS V14.01,2013-12-02 05:46:00,
2013-12-01 23:47:00,32.4,28.1,29.84,SSW,193,1.0,3.0,84,0.00,,---,0.00,VWS V14.01,2013-12-02 05:47:00,
2013-12-01 23:50:00,32.2,27.9,29.84,SSW,202,1.0,3.0,84,0.00,,---,0.00,VWS V15.00,2013-12-02 05:50:00,
2013-12-01 23:51:00,32.2,28.2,29.84,SSW,193,1.0,1.0,85,0.00,,---,0.00,VWS V14.01,2013-12-02 05:51:00,
2013-12-01 23:52:00,32.1,28.1,29.84,SSW,193,0.0,1.0,85,0.00,,---,0.00,VWS V14.01,2013-12-02 05:52:00,
2013-12-01 23:56:00,32.1,28.1,29.84,SSW,193,1.0,1.0,85,0.00,,---,0.00,VWS V14.01,2013-12-02 05:56:00,
2013-12-01 23:57:00,32.1,28.1,29.84,SSW,193,2.0,2.0,85,0.00,,---,0.00,VWS V14.01,2013-12-02 05:57:00,